Location: DARK SKY Beskydy - Park tmavé oblohy, www.darkskybeskydy.cz
(49.4926°N, 18.5016°E)
Time: 03:10:17
(UTC+01:00)

N. Korean satellite - Pass Details

Date: 07 December 2022
Orbit: 407 x 442 km, 97.3° (Epoch: 05 February)

Event Time Altitude Azimuth Distance (km) Brightness Sun altitude
Rises 04:03:20 0° 30° (NNE) 2,510 10.6 -32.1°
Reaches altitude 10° 04:06:17 10° 58° (ENE) 1,618 9.9 -31.6°
Maximum altitude 04:08:05 13° 89° (E) 1,408 9.7 -31.3°
Drops below altitude 10° 04:09:51 10° 121° (ESE) 1,596 9.8 -31.0°
Sets 04:12:43 0° 149° (SSE) 2,448 10.5 -30.6°
